Location: Unspecified
(0.0000°N, 0.0000°E)
Time: 17:17:20
(UTC+00:00)

Vanguard 1 - Pass Details

Date: 04 October 2020
Orbit: 650 x 3833 km, 34.3° (Epoch: 26 October)

Event Time Altitude Azimuth Distance (km) Brightness Sun altitude
Rises 12:29:30 0° 222° (SW) 7,513 14.7 78.8°
Reaches altitude 10° 12:35:22 10° 214° (SSW) 6,745 14.6 77.4°
Maximum altitude 12:55:53 36° 153° (SSE) 4,932 14.1 72.6°
Drops below altitude 10° 13:13:04 10° 93° (E) 5,809 13.9 68.4°
Sets 13:17:27 0° 84° (E) 6,432 14.0 67.3°
